When you browse on this site, cookies collect data to enhance your experience and personalize the content and advertising you see.
Visit our Privacy Policy to learn more. By continuing to use the site, you agree to this use of cookies and data.
  • In Spain
  • List of Countries
  • For 7 days
  • Water Temperature
  • Weather Map
  • Weather Widgets
  • user-avatar
    Login

    Hourly Weather Boma

    Today, 28 February, Friday

    Time Temperature Precipitation Wind Pressure Humidity
    00:00 +24°C° 0 mm 0 mps 699 mmHg 37%
    01:00 +25°C° 0 mm 0 mps 700 mmHg 32%
    02:00 +24°C° 0 mm 0 mps 700 mmHg 33%
    03:00 +24°C° 0 mm 0 mps 699 mmHg 34%
    04:00 +23°C° 0 mm 0 mps 699 mmHg 36%
    05:00 +23°C° 0 mm 0 mps 699 mmHg 38%
    06:00 +22°C° 0 mm 0 mps 700 mmHg 41%
    07:00 +22°C° 0 mm 0 mps 700 mmHg 44%
    08:00 +28°C° 0 mm 1 mps 701 mmHg 35%
    09:00 +32°C° 0 mm 1 mps 701 mmHg 25%
    10:00 +36°C° 0 mm 1 mps 702 mmHg 15%
    11:00 +39°C° 0 mm 1 mps 701 mmHg 14%
    12:00 +40°C° 0 mm 2 mps 701 mmHg 12%
    13:00 +42°C° 0 mm 2 mps 700 mmHg 11%
    14:00 +42°C° 0 mm 2 mps 699 mmHg 11%
    15:00 +42°C° 0 mm 2 mps 699 mmHg 11%
    16:00 +42°C° 0 mm 1 mps 698 mmHg 12%
    17:00 +39°C° 0 mm 1 mps 698 mmHg 15%
    18:00 +34°C° 0 mm 1 mps 698 mmHg 18%
    19:00 +31°C° 0 mm 1 mps 698 mmHg 21%
    20:00 +30°C° 0 mm 1 mps 698 mmHg 22%
    21:00 +29°C° 0 mm 1 mps 699 mmHg 24%
    22:00 +27°C° 0 mm 1 mps 700 mmHg 25%
    23:00 +26°C° 0 mm 1 mps 699 mmHg 27%

    Tomorrow, 29 February, Saturday

    Time Temperature Precipitation Wind Pressure Humidity
    00:00 +24°C° 0 mm 1 mps 699 mmHg 28%
    01:00 +21°C° 0 mm 0 mps 699 mmHg 30%
    02:00 +22°C° 0 mm 1 mps 698 mmHg 32%
    03:00 +21°C° 0 mm 1 mps 698 mmHg 35%
    04:00 +20°C° 0 mm 1 mps 697 mmHg 37%
    05:00 +18°C° 0 mm 0 mps 698 mmHg 42%
    06:00 +18°C° 0 mm 0 mps 698 mmHg 47%
    07:00 +17°C° 0 mm 0 mps 699 mmHg 51%
    08:00 +23°C° 0 mm 0 mps 700 mmHg 40%
    09:00 +29°C° 0 mm 0 mps 701 mmHg 29%
    10:00 +35°C° 0 mm 0 mps 702 mmHg 18%
    11:00 +40°C° 0 mm 1 mps 701 mmHg 15%
    12:00 +41°C° 0 mm 1 mps 700 mmHg 12%
    13:00 +43°C° 0 mm 1 mps 699 mmHg 9%
    14:00 +43°C° 0 mm 1 mps 698 mmHg 9%
    15:00 +43°C° 0 mm 1 mps 698 mmHg 9%
    16:00 +43°C° 0 mm 2 mps 697 mmHg 9%
    17:00 +40°C° 0 mm 1 mps 697 mmHg 12%
    18:00 +35°C° 0 mm 1 mps 697 mmHg 15%
    19:00 +32°C° 0 mm 1 mps 697 mmHg 18%
    20:00 +29°C° 0 mm 0 mps 698 mmHg 20%
    21:00 +27°C° 0 mm 0 mps 698 mmHg 21%
    22:00 +26°C° 0 mm 0 mps 699 mmHg 23%
    23:00 +27°C° 0 mm 1 mps 699 mmHg 29%

    Day after tomorrow, 1 March, Sunday

    Time Temperature Precipitation Wind Pressure Humidity
    00:00 +26°C° 0 mm 1 mps 699 mmHg 34%
    01:00 +25°C° 0 mm 1 mps 699 mmHg 40%
    02:00 +23°C° 0 mm 1 mps 698 mmHg 59%
    03:00 +22°C° 0 mm 1 mps 698 mmHg 77%
    04:00 +21°C° 0 mm 1 mps 698 mmHg 96%
    05:00 +22°C° 0 mm 1 mps 699 mmHg 93%
    06:00 +23°C° 0 mm 1 mps 699 mmHg 91%
    07:00 +24°C° 0 mm 1 mps 700 mmHg 88%
    08:00 +27°C° 0 mm 1 mps 700 mmHg 74%
    09:00 +30°C° 0 mm 1 mps 701 mmHg 61%
    10:00 +33°C° 0 mm 1 mps 702 mmHg 47%
    11:00 +36°C° 0 mm 1 mps 701 mmHg 37%
    12:00 +38°C° 0 mm 0 mps 701 mmHg 26%
    13:00 +42°C° 0 mm 0 mps 700 mmHg 16%
    14:00 +40°C° 0 mm 0 mps 699 mmHg 16%
    15:00 +42°C° 0 mm 1 mps 698 mmHg 16%
    16:00 +40°C° 0 mm 1 mps 697 mmHg 17%
    17:00 +37°C° 0 mm 1 mps 697 mmHg 21%
    18:00 +34°C° 0 mm 1 mps 697 mmHg 26%
    19:00 +31°C° 0 mm 1 mps 697 mmHg 30%
    20:00 +30°C° 0 mm 1 mps 698 mmHg 35%
    21:00 +29°C° 0 mm 1 mps 698 mmHg 40%
    22:00 +27°C° 0 mm 2 mps 699 mmHg 45%
    23:00 +26°C° 0 mm 1 mps 699 mmHg 58%

    2 March, Monday

    Time Temperature Precipitation Wind Pressure Humidity
    00:00 +25°C° 0 mm 1 mps 699 mmHg 70%
    01:00 +23°C° 0 mm 1 mps 699 mmHg 83%
    02:00 +23°C° 0 mm 1 mps 699 mmHg 88%
    03:00 +22°C° 0 mm 1 mps 699 mmHg 93%
    04:00 +19°C° 0 mm 0 mps 699 mmHg 98%
    05:00 +22°C° 0 mm 1 mps 699 mmHg 97%
    06:00 +22°C° 0 mm 1 mps 700 mmHg 95%
    07:00 +22°C° 0 mm 1 mps 700 mmHg 94%
    08:00 +25°C° 0 mm 1 mps 701 mmHg 81%
    09:00 +28°C° 0 mm 1 mps 702 mmHg 68%
    10:00 +31°C° 0 mm 2 mps 702 mmHg 54%
    11:00 +34°C° 0 mm 1 mps 702 mmHg 44%
    12:00 +37°C° 0 mm 1 mps 701 mmHg 34%
    13:00 +41°C° 0 mm 1 mps 701 mmHg 24%
    14:00 +40°C° 0 mm 1 mps 700 mmHg 24%
    15:00 +39°C° 0 mm 1 mps 699 mmHg 24%
    16:00 +37°C° 0 mm 1 mps 698 mmHg 24%
    17:00 +35°C° 0 mm 1 mps 698 mmHg 30%
    18:00 +33°C° 0 mm 1 mps 698 mmHg 36%
    19:00 +30°C° 0 mm 1 mps 698 mmHg 41%
    20:00 +29°C° 0 mm 1 mps 699 mmHg 46%
    21:00 +28°C° 0 mm 1 mps 699 mmHg 51%
    22:00 +27°C° 0 mm 2 mps 700 mmHg 56%
    23:00 +26°C° 0 mm 1 mps 700 mmHg 65%

    3 March, Tuesday

    Time Temperature Precipitation Wind Pressure Humidity
    00:00 +24°C° 0 mm 1 mps 700 mmHg 74%
    01:00 +23°C° 0 mm 1 mps 700 mmHg 83%
    02:00 +22°C° 0 mm 1 mps 700 mmHg 88%
    03:00 +21°C° 0 mm 1 mps 700 mmHg 93%
    04:00 +20°C° 0 mm 1 mps 699 mmHg 98%
    05:00 +21°C° 0 mm 1 mps 700 mmHg 97%
    06:00 +21°C° 0 mm 1 mps 700 mmHg 95%
    07:00 +19°C° 0 mm 0 mps 701 mmHg 94%
    08:00 +25°C° 0 mm 1 mps 702 mmHg 78%
    09:00 +29°C° 0 mm 1 mps 702 mmHg 62%
    10:00 +32°C° 0 mm 2 mps 703 mmHg 45%
    11:00 +36°C° 0 mm 1 mps 703 mmHg 37%
    12:00 +40°C° 0 mm 1 mps 702 mmHg 29%
    13:00 +43°C° 0 mm 1 mps 701 mmHg 20%
    14:00 +41°C° 0 mm 1 mps 700 mmHg 21%
    15:00 +40°C° 0 mm 1 mps 699 mmHg 23%
    16:00 +35°C° 0 mm 0 mps 699 mmHg 24%
    17:00 +35°C° 0 mm 1 mps 699 mmHg 28%
    18:00 +33°C° 0 mm 1 mps 699 mmHg 32%
    19:00 +31°C° 0 mm 1 mps 699 mmHg 35%
    20:00 +29°C° 0 mm 1 mps 699 mmHg 42%
    21:00 +28°C° 0 mm 1 mps 700 mmHg 48%
    22:00 +26°C° 0 mm 1 mps 700 mmHg 54%
    23:00 +25°C° 0 mm 1 mps 700 mmHg 58%

    4 March, Wednesday

    Time Temperature Precipitation Wind Pressure Humidity
    00:00 +25°C° 0 mm 1 mps 700 mmHg 62%
    01:00 +24°C° 0 mm 1 mps 700 mmHg 65%
    02:00 +23°C° 0 mm 1 mps 700 mmHg 71%
    03:00 +22°C° 0 mm 1 mps 700 mmHg 77%
    04:00 +22°C° 0 mm 1 mps 699 mmHg 82%
    05:00 +22°C° 0 mm 1 mps 700 mmHg 85%
    06:00 +20°C° 0 mm 0 mps 700 mmHg 87%
    07:00 +20°C° 0 mm 0 mps 701 mmHg 89%
    08:00 +24°C° 0 mm 0 mps 701 mmHg 72%
    09:00 +29°C° 0 mm 0 mps 702 mmHg 55%
    10:00 +35°C° 0 mm 1 mps 703 mmHg 39%
    11:00 +39°C° 0 mm 1 mps 702 mmHg 31%
    12:00 +41°C° 0 mm 1 mps 701 mmHg 23%
    13:00 +44°C° 0 mm 1 mps 700 mmHg 15%
    14:00 +42°C° 0 mm 1 mps 700 mmHg 16%
    15:00 +41°C° 0 mm 1 mps 699 mmHg 17%
    16:00 +40°C° 0 mm 1 mps 698 mmHg 19%
    17:00 +37°C° 0 mm 1 mps 698 mmHg 23%
    18:00 +34°C° 0 mm 1 mps 698 mmHg 27%
    19:00 +32°C° 0 mm 1 mps 699 mmHg 32%
    20:00 +31°C° 0 mm 1 mps 699 mmHg 37%
    21:00 +30°C° 0 mm 1 mps 700 mmHg 41%
    22:00 +27°C° 0 mm 0 mps 700 mmHg 46%
    23:00 +27°C° 0.4 mm 1 mps 700 mmHg 56%
    Show more